NWS255 ULLI-UWUU

Flight info

Callsign NWS255
Flight time 2h 10m
Altitude 35000
Route KERIS L255 DOKOD M61 AGNOG P977 GUGNI L93 OGMEL
Aircraft B738/M-SDE2E3FGHIRWXY/LB1

Departure

Time 2026-04-23 07:00
Airport Pulkovo Airport (ULLI)

Arrival

Time 2026-04-23 09:11
Airport Ufa International Airport (UWUU)
Time Latitude Longitude Altitude Speed Heading
2026-04-23 06:39 59.79629 30.26592 85 ft 0 kts 95°
2026-04-23 06:50 59.79629 30.26591 85 ft 1 kts 95°
2026-04-23 06:50 59.79631 30.26540 86 ft 4 kts 96°
2026-04-23 06:51 59.79634 30.26488 85 ft 3 kts 101°
2026-04-23 06:51 59.79639 30.26458 87 ft 2 kts 126°
2026-04-23 06:51 59.79647 30.26444 88 ft 2 kts 174°
2026-04-23 06:51 59.79659 30.26445 88 ft 2 kts 193°
2026-04-23 06:52 59.79669 30.26450 89 ft 2 kts 196°
2026-04-23 06:52 59.79672 30.26452 89 ft 0 kts 197°
2026-04-23 06:53 59.79666 30.26448 88 ft 3 kts 197°
2026-04-23 06:54 59.79630 30.26427 85 ft 7 kts 196°
2026-04-23 06:54 59.79571 30.26393 85 ft 10 kts 196°
2026-04-23 06:54 59.79520 30.26363 86 ft 6 kts 193°
2026-04-23 06:54 59.79491 30.26396 85 ft 5 kts 118°
2026-04-23 06:55 59.79480 30.26469 86 ft 7 kts 107°
2026-04-23 06:55 59.79462 30.26585 86 ft 10 kts 107°
2026-04-23 06:55 59.79440 30.26730 88 ft 12 kts 107°
2026-04-23 06:55 59.79415 30.26901 85 ft 14 kts 106°
2026-04-23 06:56 59.79386 30.27095 87 ft 15 kts 106°
2026-04-23 06:56 59.79354 30.27310 87 ft 17 kts 107°
2026-04-23 06:56 59.79319 30.27545 88 ft 19 kts 106°
2026-04-23 06:56 59.79282 30.27796 89 ft 19 kts 107°
2026-04-23 06:57 59.79245 30.28040 90 ft 15 kts 107°
2026-04-23 06:57 59.79213 30.28194 89 ft 11 kts 134°
2026-04-23 06:57 59.79157 30.28238 89 ft 7 kts 166°
2026-04-23 06:57 59.79110 30.28261 91 ft 7 kts 166°
2026-04-23 06:58 59.79064 30.28252 91 ft 7 kts 216°
2026-04-23 06:58 59.79051 30.28147 91 ft 8 kts 280°
2026-04-23 06:58 59.79055 30.28110 90 ft 0 kts 285°
2026-04-23 06:59 59.79056 30.28103 90 ft 9 kts 285°
2026-04-23 06:59 59.79149 30.27481 88 ft 84 kts 287°
2026-04-23 07:00 59.79382 30.25950 102 ft 143 kts 290°
2026-04-23 07:00 59.79681 30.23901 490 ft 159 kts 287°
2026-04-23 07:00 59.79947 30.21703 1312 ft 163 kts 291°
2026-04-23 07:00 59.80265 30.19541 2150 ft 169 kts 293°
2026-04-23 07:01 59.80649 30.17110 2493 ft 198 kts 292°
2026-04-23 07:01 59.81075 30.14346 2847 ft 217 kts 291°
2026-04-23 07:01 59.81512 30.11442 3480 ft 225 kts 291°
2026-04-23 07:01 59.81960 30.08437 4341 ft 227 kts 291°
2026-04-23 07:02 59.82404 30.05410 5216 ft 230 kts 292°
2026-04-23 07:02 59.82866 30.02351 6025 ft 232 kts 297°
2026-04-23 07:02 59.83774 29.99817 6765 ft 222 kts 328°
2026-04-23 07:02 59.85142 29.98643 7603 ft 213 kts 353°
2026-04-23 07:03 59.86610 29.98732 8411 ft 213 kts 11°
2026-04-23 07:03 59.88049 29.99494 9244 ft 215 kts 15°
2026-04-23 07:03 59.89490 30.00351 10033 ft 217 kts 15°
2026-04-23 07:03 59.90912 30.01199 10842 ft 214 kts 16°
2026-04-23 07:04 59.92199 30.02712 11630 ft 219 kts 38°
2026-04-23 07:04 59.93096 30.05220 12439 ft 231 kts 57°
2026-04-23 07:04 59.93452 30.08457 13192 ft 252 kts 79°
2026-04-23 07:04 59.93154 30.12034 13893 ft 268 kts 91°
2026-04-23 07:05 59.92629 30.15654 14513 ft 275 kts 92°
2026-04-23 07:05 59.92025 30.19318 15108 ft 286 kts 96°
2026-04-23 07:05 59.91194 30.23124 15320 ft 312 kts 101°
2026-04-23 07:05 59.90263 30.27125 15518 ft 332 kts 101°
2026-04-23 07:06 59.89274 30.31393 15942 ft 343 kts 100°
2026-04-23 07:06 59.88611 30.35840 16370 ft 331 kts 82°
2026-04-23 07:06 59.88472 30.40497 16520 ft 343 kts 78°
2026-04-23 07:06 59.88395 30.45371 16664 ft 362 kts 79°
2026-04-23 07:07 59.88293 30.50517 16801 ft 380 kts 80°
2026-04-23 07:07 59.88153 30.55785 17198 ft 389 kts 81°
2026-04-23 07:07 59.87986 30.61183 17815 ft 392 kts 81°
2026-04-23 07:07 59.87814 30.66622 18409 ft 394 kts 80°
2026-04-23 07:08 59.87640 30.72067 18977 ft 395 kts 80°
2026-04-23 07:08 59.87469 30.77531 19507 ft 397 kts 80°
2026-04-23 07:08 59.87297 30.83033 20020 ft 399 kts 79°
2026-04-23 07:08 59.87122 30.88574 20521 ft 402 kts 79°
2026-04-23 07:09 59.86942 30.94139 21017 ft 404 kts 79°
2026-04-23 07:09 59.86759 30.99738 21503 ft 407 kts 79°
2026-04-23 07:09 59.86571 31.05371 22007 ft 409 kts 79°
2026-04-23 07:09 59.86379 31.11025 22503 ft 410 kts 78°
2026-04-23 07:10 59.86187 31.16633 22971 ft 412 kts 78°
2026-04-23 07:10 59.85988 31.22342 23401 ft 415 kts 78°
2026-04-23 07:10 59.85786 31.28098 23753 ft 417 kts 78°
2026-04-23 07:10 59.85581 31.33882 24059 ft 421 kts 79°
2026-04-23 07:11 59.85372 31.39708 24367 ft 424 kts 79°
2026-04-23 07:11 59.85158 31.45583 24688 ft 427 kts 79°
2026-04-23 07:11 59.84938 31.51509 25026 ft 429 kts 80°
2026-04-23 07:12 59.84491 31.63350 25594 ft 435 kts 81°
2026-04-23 07:12 59.84260 31.69378 25854 ft 439 kts 81°
2026-04-23 07:12 59.84025 31.75441 26124 ft 442 kts 81°
2026-04-23 07:12 59.83783 31.81561 26387 ft 445 kts 82°
2026-04-23 07:13 59.83538 31.87711 26651 ft 447 kts 82°
2026-04-23 07:13 59.83288 31.93897 26910 ft 450 kts 82°
2026-04-23 07:13 59.83034 32.00119 27170 ft 453 kts 82°
2026-04-23 07:13 59.82775 32.06354 27511 ft 453 kts 83°
2026-04-23 07:14 59.82512 32.12590 27918 ft 452 kts 83°
2026-04-23 07:14 59.82247 32.18832 28295 ft 452 kts 83°
2026-04-23 07:14 59.81983 32.25054 28620 ft 453 kts 83°
2026-04-23 07:14 59.81716 32.31307 28949 ft 454 kts 84°
2026-04-23 07:15 59.81481 32.37536 29327 ft 451 kts 82°
2026-04-23 07:15 59.81355 32.43743 29681 ft 449 kts 81°
2026-04-23 07:15 59.81287 32.49943 29942 ft 449 kts 81°
2026-04-23 07:15 59.81234 32.56068 30181 ft 450 kts 81°
2026-04-23 07:16 59.81175 32.62305 30427 ft 451 kts 81°
2026-04-23 07:16 59.81102 32.68543 30670 ft 452 kts 82°
2026-04-23 07:16 59.81017 32.74802 30918 ft 454 kts 82°
2026-04-23 07:16 59.80921 32.81082 31159 ft 454 kts 83°
2026-04-23 07:17 59.80818 32.87362 31420 ft 455 kts 83°
2026-04-23 07:17 59.80709 32.93654 31651 ft 456 kts 83°
2026-04-23 07:17 59.80596 32.99960 31882 ft 457 kts 83°
2026-04-23 07:17 59.80480 33.06275 32130 ft 457 kts 84°
2026-04-23 07:18 59.80360 33.12603 32372 ft 458 kts 84°
2026-04-23 07:18 59.80239 33.18861 32596 ft 459 kts 84°
2026-04-23 07:18 59.80114 33.25204 32834 ft 459 kts 84°
2026-04-23 07:18 59.79986 33.31536 33059 ft 460 kts 84°
2026-04-23 07:19 59.79855 33.37886 33278 ft 460 kts 85°
2026-04-23 07:19 59.79721 33.44243 33507 ft 461 kts 85°
2026-04-23 07:19 59.79583 33.50604 33730 ft 461 kts 85°
2026-04-23 07:19 59.79442 33.56968 33910 ft 461 kts 85°
2026-04-23 07:20 59.79299 33.63339 34085 ft 462 kts 85°
2026-04-23 07:20 59.79151 33.69716 34277 ft 462 kts 86°
2026-04-23 07:20 59.79001 33.76093 34463 ft 462 kts 86°
2026-04-23 07:20 59.78847 33.82472 34619 ft 463 kts 86°
2026-04-23 07:21 59.78691 33.88885 34632 ft 466 kts 86°
2026-04-23 07:21 59.78368 34.01631 34633 ft 464 kts 86°
2026-04-23 07:22 59.78030 34.14385 34639 ft 461 kts 86°
2026-04-23 07:22 59.77684 34.27076 34634 ft 460 kts 87°
2026-04-23 07:23 59.77327 34.39746 34623 ft 459 kts 87°
2026-04-23 07:23 59.76958 34.52383 34629 ft 459 kts 87°
2026-04-23 07:24 59.76577 34.65039 34619 ft 460 kts 88°
2026-04-23 07:24 59.76182 34.77733 34619 ft 461 kts 88°
2026-04-23 07:25 59.75775 34.90375 34613 ft 463 kts 88°
2026-04-23 07:25 59.75351 35.03155 34604 ft 465 kts 89°
2026-04-23 07:26 59.74912 35.15977 34594 ft 466 kts 89°
2026-04-23 07:26 59.74460 35.28822 34591 ft 467 kts 89°
2026-04-23 07:27 59.73996 35.41695 34585 ft 468 kts 89°
2026-04-23 07:27 59.73520 35.54575 34577 ft 469 kts 90°
2026-04-23 07:28 59.73030 35.67390 34566 ft 469 kts 90°
2026-04-23 07:28 59.72523 35.80273 34561 ft 469 kts 90°
2026-04-23 07:29 59.72087 35.91067 34552 ft 469 kts 90°
2026-04-23 07:29 59.71558 36.03871 34547 ft 469 kts 91°
2026-04-23 07:30 59.71013 36.16774 34545 ft 469 kts 91°
2026-04-23 07:30 59.70455 36.29657 34540 ft 469 kts 91°
2026-04-23 07:31 59.69884 36.42528 34528 ft 469 kts 91°
2026-04-23 07:31 59.69300 36.55397 34527 ft 469 kts 92°
2026-04-23 07:32 59.68704 36.68283 34514 ft 470 kts 92°
2026-04-23 07:32 59.68087 36.81176 34504 ft 470 kts 92°
2026-04-23 07:33 59.67457 36.93974 34504 ft 470 kts 92°
2026-04-23 07:33 59.66809 37.06846 34495 ft 470 kts 92°
2026-04-23 07:34 59.66146 37.19756 34494 ft 471 kts 93°
2026-04-23 07:34 59.65472 37.32638 34484 ft 471 kts 93°
2026-04-23 07:35 59.64784 37.45526 34480 ft 472 kts 93°
2026-04-23 07:35 59.64081 37.58430 34468 ft 472 kts 93°
2026-04-23 07:36 59.63365 37.71331 34463 ft 472 kts 94°
2026-04-23 07:36 59.62637 37.84240 34453 ft 473 kts 94°
2026-04-23 07:37 59.61908 37.97072 34449 ft 473 kts 94°
2026-04-23 07:37 59.61176 38.09987 34446 ft 473 kts 94°
2026-04-23 07:38 59.60429 38.22911 34440 ft 473 kts 94°
2026-04-23 07:38 59.59666 38.35813 34439 ft 473 kts 94°
2026-04-23 07:39 59.58888 38.48702 34436 ft 473 kts 94°
2026-04-23 07:39 59.58099 38.61591 34437 ft 473 kts 95°
2026-04-23 07:40 59.57295 38.74489 34435 ft 473 kts 95°
2026-04-23 07:40 59.56480 38.87363 34429 ft 473 kts 95°
2026-04-23 07:41 59.55651 39.00238 34430 ft 473 kts 95°
2026-04-23 07:41 59.54816 39.13027 34423 ft 473 kts 96°
2026-04-23 07:42 59.53962 39.25874 34421 ft 473 kts 96°
2026-04-23 07:42 59.53096 39.38726 34426 ft 473 kts 96°
2026-04-23 07:43 59.52215 39.51592 34423 ft 474 kts 96°
2026-04-23 07:43 59.51319 39.64470 34414 ft 474 kts 96°
2026-04-23 07:44 59.50411 39.77343 34416 ft 474 kts 97°
2026-04-23 07:44 59.49601 39.90139 34405 ft 474 kts 94°
2026-04-23 07:45 59.49136 40.03094 34410 ft 474 kts 92°
2026-04-23 07:45 59.48699 40.16042 34405 ft 474 kts 93°
2026-04-23 07:46 59.48200 40.29013 34391 ft 475 kts 94°
2026-04-23 07:46 59.47670 40.41896 34388 ft 475 kts 94°
2026-04-23 07:47 59.47123 40.54851 34389 ft 475 kts 94°
2026-04-23 07:47 59.46569 40.67819 34387 ft 476 kts 94°
2026-04-23 07:48 59.46003 40.80778 34380 ft 476 kts 94°
2026-04-23 07:48 59.45421 40.93772 34377 ft 477 kts 95°
2026-04-23 07:49 59.44821 41.06789 34371 ft 479 kts 95°
2026-04-23 07:49 59.44209 41.19763 34366 ft 480 kts 95°
2026-04-23 07:50 59.43578 41.32846 34355 ft 481 kts 95°
2026-04-23 07:50 59.42934 41.45940 34363 ft 481 kts 95°
2026-04-23 07:51 59.42277 41.59013 34354 ft 481 kts 95°
2026-04-23 07:51 59.41608 41.72065 34350 ft 480 kts 96°
2026-04-23 07:52 59.40927 41.85069 34343 ft 481 kts 96°
2026-04-23 07:52 59.40229 41.98147 34342 ft 481 kts 96°
2026-04-23 07:53 59.39519 42.11187 34341 ft 480 kts 96°
2026-04-23 07:53 59.38797 42.24194 34334 ft 479 kts 96°
2026-04-23 07:54 59.38065 42.37151 34332 ft 477 kts 96°
2026-04-23 07:54 59.37298 42.50084 34329 ft 476 kts 97°
2026-04-23 07:55 59.36513 42.62964 34328 ft 475 kts 97°
2026-04-23 07:55 59.35719 42.75755 34328 ft 475 kts 97°
2026-04-23 07:56 59.34911 42.88596 34320 ft 475 kts 97°
2026-04-23 07:56 59.34090 43.01433 34322 ft 474 kts 97°
2026-04-23 07:57 59.33259 43.14233 34324 ft 474 kts 98°
2026-04-23 07:57 59.32414 43.27033 34321 ft 474 kts 98°
2026-04-23 07:58 59.31556 43.39837 34319 ft 474 kts 98°
2026-04-23 07:58 59.30690 43.52574 34323 ft 475 kts 98°
2026-04-23 07:59 59.29802 43.65422 34311 ft 476 kts 98°
2026-04-23 07:59 59.28902 43.78274 34311 ft 477 kts 98°
2026-04-23 08:00 59.27986 43.91135 34318 ft 477 kts 99°
2026-04-23 08:00 59.27057 44.03980 34324 ft 477 kts 99°
2026-04-23 08:01 59.26122 44.16806 34327 ft 476 kts 99°
2026-04-23 08:01 59.25258 44.29654 34330 ft 477 kts 98°
2026-04-23 08:02 59.24426 44.42422 34336 ft 477 kts 98°
2026-04-23 08:02 59.23563 44.55285 34334 ft 477 kts 99°
2026-04-23 08:03 59.22678 44.68111 34341 ft 476 kts 99°
2026-04-23 08:03 59.21780 44.80918 34351 ft 476 kts 99°
2026-04-23 08:04 59.20868 44.93727 34347 ft 476 kts 99°
2026-04-23 08:04 59.19943 45.06519 34358 ft 475 kts 99°
2026-04-23 08:05 59.19013 45.19221 34365 ft 475 kts 99°
2026-04-23 08:05 59.17990 45.31956 34366 ft 474 kts 102°
2026-04-23 08:06 59.16625 45.44551 34375 ft 474 kts 104°
2026-04-23 08:06 59.15182 45.57079 34383 ft 474 kts 104°
2026-04-23 08:07 59.13752 45.69620 34378 ft 474 kts 104°
2026-04-23 08:07 59.12340 45.82082 34387 ft 474 kts 104°
2026-04-23 08:08 59.10912 45.94631 34390 ft 474 kts 104°
2026-04-23 08:08 59.09472 46.07158 34386 ft 474 kts 104°
2026-04-23 08:09 59.08018 46.19689 34391 ft 474 kts 104°
2026-04-23 08:09 59.06552 46.32202 34401 ft 474 kts 104°
2026-04-23 08:10 59.05073 46.44705 34407 ft 475 kts 104°
2026-04-23 08:10 59.02842 46.63365 34412 ft 475 kts 105°
2026-04-23 08:11 59.01332 46.75855 34417 ft 475 kts 105°
2026-04-23 08:11 58.99808 46.88342 34420 ft 476 kts 105°
2026-04-23 08:12 58.98269 47.00849 34423 ft 476 kts 105°
2026-04-23 08:12 58.96717 47.13341 34431 ft 476 kts 105°
2026-04-23 08:13 58.95152 47.25818 34427 ft 477 kts 105°
2026-04-23 08:13 58.93575 47.38285 34436 ft 476 kts 107°
2026-04-23 08:14 58.90978 47.49860 34440 ft 471 kts 124°
2026-04-23 08:14 58.86938 47.59708 34451 ft 467 kts 133°
2026-04-23 08:15 58.82659 47.69183 34456 ft 467 kts 133°
2026-04-23 08:15 58.78396 47.78699 34459 ft 468 kts 132°
2026-04-23 08:16 58.74878 47.86603 34461 ft 468 kts 132°
2026-04-23 08:16 58.70638 47.96112 34466 ft 468 kts 132°
2026-04-23 08:17 58.66391 48.05592 34474 ft 468 kts 133°
2026-04-23 08:17 58.62135 48.15044 34476 ft 468 kts 133°
2026-04-23 08:18 58.57872 48.24499 34485 ft 468 kts 131°
2026-04-23 08:18 58.53883 48.34273 34479 ft 469 kts 128°
2026-04-23 08:19 58.49952 48.44322 34489 ft 468 kts 129°
2026-04-23 08:19 58.46013 48.54156 34485 ft 468 kts 129°
2026-04-23 08:20 58.42052 48.64032 34489 ft 468 kts 129°
2026-04-23 08:20 58.38101 48.73897 34498 ft 468 kts 129°
2026-04-23 08:21 58.34145 48.83722 34503 ft 467 kts 129°
2026-04-23 08:21 58.30177 48.93523 34508 ft 467 kts 129°
2026-04-23 08:22 58.26201 49.03299 34505 ft 467 kts 129°
2026-04-23 08:22 58.22215 49.13060 34513 ft 467 kts 129°
2026-04-23 08:23 58.18225 49.22792 34515 ft 467 kts 129°
2026-04-23 08:23 58.14246 49.32456 34517 ft 468 kts 129°
2026-04-23 08:24 58.10230 49.42169 34526 ft 468 kts 129°
2026-04-23 08:24 58.06217 49.51835 34529 ft 468 kts 130°
2026-04-23 08:25 58.02188 49.61503 34536 ft 468 kts 129°
2026-04-23 08:25 57.98176 49.71088 34528 ft 468 kts 130°
2026-04-23 08:26 57.94141 49.80686 34542 ft 468 kts 130°
2026-04-23 08:26 57.90091 49.90277 34536 ft 467 kts 130°
2026-04-23 08:27 57.86041 49.99823 34536 ft 467 kts 131°
2026-04-23 08:27 57.81341 50.08097 34554 ft 463 kts 142°
2026-04-23 08:28 57.76330 50.15675 34553 ft 462 kts 142°
2026-04-23 08:28 57.71323 50.23245 34543 ft 462 kts 142°
2026-04-23 08:29 57.66361 50.30803 34545 ft 462 kts 142°
2026-04-23 08:29 57.61380 50.38399 34542 ft 462 kts 142°
2026-04-23 08:30 57.56394 50.45977 34540 ft 462 kts 142°
2026-04-23 08:30 57.51407 50.53526 34543 ft 462 kts 142°
2026-04-23 08:31 57.46408 50.61064 34545 ft 463 kts 142°
2026-04-23 08:31 57.41397 50.68591 34547 ft 463 kts 142°
2026-04-23 08:32 57.36391 50.76085 34548 ft 463 kts 142°
2026-04-23 08:32 57.31364 50.83582 34553 ft 464 kts 142°
2026-04-23 08:33 57.26364 50.91010 34555 ft 464 kts 142°
2026-04-23 08:33 57.21313 50.98488 34556 ft 465 kts 143°
2026-04-23 08:34 57.16254 51.05945 34547 ft 466 kts 143°
2026-04-23 08:34 57.11184 51.13395 34554 ft 466 kts 143°
2026-04-23 08:35 57.06108 51.20834 34557 ft 466 kts 143°
2026-04-23 08:35 57.01023 51.28271 34551 ft 467 kts 143°
2026-04-23 08:36 56.95938 51.35676 34554 ft 467 kts 143°
2026-04-23 08:36 56.90877 51.43011 34557 ft 467 kts 143°
2026-04-23 08:37 56.85782 51.50371 34558 ft 466 kts 143°
2026-04-23 08:37 56.80690 51.57710 34556 ft 466 kts 143°
2026-04-23 08:38 56.75596 51.65038 34557 ft 466 kts 143°
2026-04-23 08:38 56.70490 51.72351 34554 ft 466 kts 143°
2026-04-23 08:39 56.65384 51.79632 34559 ft 466 kts 143°
2026-04-23 08:39 56.60307 51.86844 34555 ft 466 kts 143°
2026-04-23 08:40 56.55202 51.94070 34554 ft 465 kts 143°
2026-04-23 08:40 56.50096 52.01270 34555 ft 465 kts 143°
2026-04-23 08:41 56.44980 52.08457 34558 ft 465 kts 143°
2026-04-23 08:41 56.39868 52.15619 34554 ft 465 kts 143°
2026-04-23 08:42 56.34743 52.22751 34561 ft 465 kts 144°
2026-04-23 08:42 56.29615 52.29853 34559 ft 465 kts 144°
2026-04-23 08:43 56.24482 52.36946 34559 ft 465 kts 144°
2026-04-23 08:43 56.19349 52.44025 34557 ft 465 kts 144°
2026-04-23 08:44 56.14236 52.51042 34560 ft 465 kts 144°
2026-04-23 08:44 56.09085 52.58089 34559 ft 465 kts 144°
2026-04-23 08:45 56.04370 52.66054 34559 ft 469 kts 130°
2026-04-23 08:45 56.00359 52.75282 34555 ft 470 kts 129°
2026-04-23 08:46 55.96385 52.84453 34560 ft 469 kts 130°
2026-04-23 08:46 55.92338 52.93607 34565 ft 469 kts 130°
2026-04-23 08:47 55.88262 53.02719 34564 ft 469 kts 130°
2026-04-23 08:47 55.84182 53.11802 34565 ft 469 kts 130°
2026-04-23 08:48 55.80125 53.20804 34566 ft 469 kts 131°
2026-04-23 08:48 55.76029 53.29860 34431 ft 472 kts 131°
2026-04-23 08:49 55.73955 53.34428 33830 ft 477 kts 131°
2026-04-23 08:49 55.71874 53.39007 33113 ft 475 kts 131°
2026-04-23 08:49 55.69803 53.43559 32332 ft 475 kts 130°
2026-04-23 08:49 55.67729 53.48108 31572 ft 474 kts 130°
2026-04-23 08:50 55.65658 53.52648 30795 ft 474 kts 130°
2026-04-23 08:50 55.63581 53.57200 30007 ft 475 kts 130°
2026-04-23 08:50 55.61531 53.61683 29083 ft 475 kts 130°
2026-04-23 08:50 55.59451 53.66220 28131 ft 474 kts 130°
2026-04-23 08:51 55.57370 53.70748 27205 ft 473 kts 130°
2026-04-23 08:51 55.55295 53.75254 26335 ft 471 kts 130°
2026-04-23 08:51 55.53244 53.79699 25695 ft 464 kts 130°
2026-04-23 08:51 55.51219 53.84082 25021 ft 459 kts 130°
2026-04-23 08:52 55.49212 53.88419 24374 ft 453 kts 131°
2026-04-23 08:52 55.47229 53.92695 23736 ft 448 kts 131°
2026-04-23 08:52 55.45264 53.96924 23087 ft 443 kts 131°
2026-04-23 08:52 55.43323 54.01097 22353 ft 438 kts 131°
2026-04-23 08:53 55.41409 54.05206 21711 ft 431 kts 131°
2026-04-23 08:53 55.39524 54.09241 21283 ft 421 kts 131°
2026-04-23 08:53 55.37673 54.13186 20674 ft 416 kts 131°
2026-04-23 08:53 55.35840 54.17078 20089 ft 411 kts 131°
2026-04-23 08:54 55.34025 54.20924 19478 ft 407 kts 132°
2026-04-23 08:54 55.32222 54.24737 18881 ft 404 kts 132°
2026-04-23 08:54 55.30430 54.28520 18279 ft 401 kts 132°
2026-04-23 08:54 55.28671 54.32230 17675 ft 399 kts 132°
2026-04-23 08:55 55.26895 54.35972 17003 ft 397 kts 132°
2026-04-23 08:55 55.25135 54.39671 16403 ft 393 kts 132°
2026-04-23 08:55 55.23393 54.43331 15815 ft 389 kts 132°
2026-04-23 08:55 55.21666 54.46956 15214 ft 386 kts 133°
2026-04-23 08:56 55.19956 54.50539 14635 ft 382 kts 133°
2026-04-23 08:56 55.18257 54.54100 14056 ft 380 kts 132°
2026-04-23 08:56 55.16662 54.57773 13463 ft 379 kts 128°
2026-04-23 08:56 55.15164 54.61560 12817 ft 377 kts 127°
2026-04-23 08:57 55.13705 54.65347 12201 ft 374 kts 127°
2026-04-23 08:57 55.12251 54.69115 11619 ft 371 kts 127°
2026-04-23 08:57 55.10805 54.72822 11045 ft 368 kts 127°
2026-04-23 08:57 55.09359 54.76493 10668 ft 363 kts 128°
2026-04-23 08:58 55.07961 54.80024 10494 ft 353 kts 128°
2026-04-23 08:58 55.06584 54.83488 10338 ft 341 kts 128°
2026-04-23 08:58 55.05250 54.86835 10196 ft 329 kts 128°
2026-04-23 08:58 55.03960 54.90062 10055 ft 318 kts 128°
2026-04-23 08:59 55.02712 54.93178 9931 ft 308 kts 128°
2026-04-23 08:59 55.01501 54.96193 9803 ft 299 kts 129°
2026-04-23 08:59 55.00342 54.99078 9687 ft 290 kts 129°
2026-04-23 08:59 54.99203 55.01910 9563 ft 281 kts 129°
2026-04-23 09:00 54.98088 55.04682 9286 ft 279 kts 129°
2026-04-23 09:00 54.96981 55.07441 9012 ft 277 kts 128°
2026-04-23 09:00 54.96005 55.10336 8721 ft 278 kts 122°
2026-04-23 09:00 54.95119 55.13327 8450 ft 278 kts 121°
2026-04-23 09:01 54.94245 55.16318 8148 ft 277 kts 121°
2026-04-23 09:01 54.93370 55.19288 7870 ft 275 kts 121°
2026-04-23 09:01 54.92492 55.22231 7595 ft 273 kts 121°
2026-04-23 09:01 54.91615 55.25146 7325 ft 271 kts 122°
2026-04-23 09:02 54.90740 55.28039 7052 ft 270 kts 122°
2026-04-23 09:02 54.89865 55.30921 6777 ft 268 kts 122°
2026-04-23 09:02 54.89008 55.33747 6675 ft 261 kts 122°
2026-04-23 09:02 54.88094 55.36372 6488 ft 252 kts 138°
2026-04-23 09:03 54.86758 55.38243 6307 ft 245 kts 148°
2026-04-23 09:03 54.85373 55.39984 6081 ft 246 kts 148°
2026-04-23 09:03 54.83982 55.41730 5820 ft 247 kts 148°
2026-04-23 09:03 54.82596 55.43473 5554 ft 246 kts 148°
2026-04-23 09:04 54.81217 55.45209 5288 ft 244 kts 148°
2026-04-23 09:04 54.79848 55.46933 5023 ft 242 kts 148°
2026-04-23 09:04 54.78487 55.48648 4760 ft 241 kts 148°
2026-04-23 09:04 54.77135 55.50352 4508 ft 239 kts 148°
2026-04-23 09:05 54.75793 55.52043 4257 ft 238 kts 148°
2026-04-23 09:05 54.74465 55.53717 4160 ft 232 kts 148°
2026-04-23 09:05 54.73167 55.55353 4159 ft 231 kts 149°
2026-04-23 09:05 54.72046 55.57411 4123 ft 247 kts 120°
2026-04-23 09:06 54.71503 55.60329 3898 ft 260 kts 108°
2026-04-23 09:06 54.71202 55.62337 3706 ft 260 kts 108°
2026-04-23 09:06 54.70589 55.66305 3338 ft 254 kts 109°
2026-04-23 09:06 54.70128 55.69215 3075 ft 246 kts 109°
2026-04-23 09:07 54.69829 55.71091 2919 ft 241 kts 108°
2026-04-23 09:07 54.69153 55.73551 2654 ft 212 kts 141°
2026-04-23 09:07 54.67988 55.74775 2545 ft 188 kts 156°
2026-04-23 09:07 54.66856 55.75831 2346 ft 180 kts 156°
2026-04-23 09:08 54.65786 55.76819 2170 ft 170 kts 157°
2026-04-23 09:08 54.64766 55.77770 2063 ft 163 kts 155°
2026-04-23 09:08 54.63790 55.78704 1920 ft 157 kts 157°
2026-04-23 09:08 54.62840 55.79617 1707 ft 153 kts 158°
2026-04-23 09:09 54.61937 55.80489 1479 ft 143 kts 158°
2026-04-23 09:09 54.61084 55.81310 1285 ft 139 kts 156°
2026-04-23 09:09 54.60240 55.82124 1077 ft 139 kts 153°
2026-04-23 09:09 54.59384 55.82942 911 ft 143 kts 154°
2026-04-23 09:10 54.58516 55.83784 693 ft 146 kts 151°
2026-04-23 09:10 54.56796 55.85445 411 ft 126 kts 150°
2026-04-23 09:10 54.56211 55.86000 410 ft 65 kts 151°
2026-04-23 09:11 54.55980 55.86225 414 ft 26 kts 150°
2026-04-23 09:11 54.55860 55.86341 412 ft 12 kts 144°
2026-04-23 09:11 54.55857 55.86444 412 ft 9 kts 67°
2026-04-23 09:11 54.55886 55.86536 412 ft 9 kts 60°
2026-04-23 09:12 54.55916 55.86625 411 ft 8 kts 60°
2026-04-23 09:12 54.55945 55.86712 410 ft 9 kts 60°
2026-04-23 09:12 54.55979 55.86817 408 ft 11 kts 61°
2026-04-23 09:12 54.56023 55.86952 404 ft 15 kts 60°
2026-04-23 09:13 54.56080 55.87124 398 ft 18 kts 60°
2026-04-23 09:13 54.56149 55.87333 392 ft 22 kts 60°
2026-04-23 09:13 54.56204 55.87500 389 ft 13 kts 60°
2026-04-23 09:13 54.56250 55.87642 388 ft 13 kts 60°
2026-04-23 09:14 54.56294 55.87774 389 ft 11 kts 60°
2026-04-23 09:14 54.56332 55.87889 389 ft 11 kts 60°
2026-04-23 09:14 54.56370 55.88006 388 ft 11 kts 60°
2026-04-23 09:14 54.56406 55.88113 388 ft 8 kts 60°
2026-04-23 09:15 54.56445 55.88168 389 ft 7 kts 10°
2026-04-23 09:15 54.56488 55.88142 389 ft 6 kts 332°
2026-04-23 09:15 54.56526 55.88107 389 ft 6 kts 332°
2026-04-23 09:15 54.56553 55.88108 389 ft 1 kts 33°
2026-04-23 09:16 54.56557 55.88117 389 ft 1 kts 51°
2026-04-23 09:16 54.56563 55.88132 389 ft 2 kts 57°
2026-04-23 09:16 54.56573 55.88160 389 ft 4 kts 59°
2026-04-23 09:16 54.56586 55.88200 389 ft 3 kts 60°
2026-04-23 09:17 54.56590 55.88214 389 ft 0 kts 60°